CW8466 Weather Reports


Display with metric or nautical units.
time (UTC)temp
F
wind
direction
speed
MPH
gust
MPH
rain 1hr
in
rain 24hr
in
rain mn
in
humidity
%
barometer
mb
20260502180342 71 38 9.0 17.0 0.00 1.46 0.00 67 1020.8
20260502170343 68 41 6.0 16.0 0.00 1.53 0.00 70 1021.7
20260502163345 67 51 4.0 11.0 0.00 1.53 0.00 75 1021.8
20260502161834 66 15 6.0 11.0 0.00 1.53 0.00 77 1021.7
20260502160345 65 27 4.0 10.0 0.00 1.53 0.00 80 1021.6
20260502151833 63 46 6.0 10.0 0.00 1.54 0.00 83 1021.5
20260502150344 62 31 1.0 5.0 0.00 1.54 0.00 86 1021.4
20260502130342 55 36 0.0 5.0 0.00 1.55 0.00 97 1019.9
20260502123337 54 33 2.0 10.0 0.00 1.65 0.00 97 1019.6
20260502121841 54 23 1.0 9.0 0.00 1.65 0.00 97 1019.6
20260502120345 54 341 0.0 5.0 0.00 1.65 0.00 97 1019.4
20260502114831 54 5 2.0 8.0 0.00 1.66 0.00 97 1019.3
20260502113339 54 26 1.0 9.0 0.00 1.66 0.00 97 1019.0
20260502111831 55 5 2.0 10.0 0.00 1.66 0.00 97 1018.7
20260502110342 55 26 2.0 9.0 0.00 1.66 0.00 97 1018.6
20260502104834 55 360 0.0 1.0 0.00 1.69 0.00 98 1018.5
20260502103340 55 23 0.0 4.0 0.00 1.69 0.00 98 1018.0
20260502101832 56 5 0.0 1.0 0.00 1.69 0.00 98 1017.9
20260502100345 56 24 2.0 5.0 0.00 1.69 0.00 98 1017.5
20260502090339 56 33 0.0 6.0 0.00 1.71 0.00 98 1016.8
20260502070353 57 53 5.0 10.0 0.00 1.71 0.00 97 1016.4
20260502064829 57 20 0.0 11.0 0.00 1.71 0.00 98 1016.3
20260502063341 57 26 0.0 11.0 0.00 1.71 0.00 98 1016.4
20260502061838 57 24 0.0 5.0 0.00 1.71 0.00 98 1016.3
20260502060344 57 38 1.0 13.0 0.00 1.71 0.00 98 1016.4
20260502054847 57 44 10.0 16.0 0.00 1.71 0.00 98 1016.3
20260502053401 57 14 3.0 17.0 0.00 1.71 0.00 99 1016.2
20260502051842 58 351 4.0 13.0 0.00 1.71 0.00 99 1016.2
20260502050328 58 40 5.0 13.0 0.00 1.71 0.00 99 1016.0
20260502044838 58 21 3.0 15.0 0.00 1.71 1.71 99 1015.9
20260502043329 58 32 2.0 11.0 0.00 1.71 1.71 99 1015.8
20260502041841 58 26 4.0 13.0 0.00 1.71 1.71 99 1015.4
20260502040331 59 33 8.0 17.0 0.00 1.71 1.71 98 1015.3
20260502034844 59 30 7.0 17.0 0.00 1.71 1.71 99 1015.2
20260502033331 60 26 7.0 15.0 0.00 1.71 1.71 99 1015.1
20260502031836 60 18 5.0 17.0 0.00 1.71 1.71 99 1014.8
20260502030343 60 9 3.0 13.0 0.00 1.71 1.71 99 1014.7
20260502024830 60 355 3.0 17.0 0.01 1.71 1.71 100 1014.5
20260502023339 60 5 2.0 8.0 0.01 1.71 1.71 100 1014.3
20260502021850 60 22 3.0 11.0 0.01 1.71 1.71 100 1013.8
20260502020341 60 32 2.0 10.0 0.01 1.71 1.71 100 1013.3
20260502014835 61 347 3.0 10.0 0.00 1.70 1.70 100 1013.1
20260502013350 61 34 5.0 13.0 0.00 1.70 1.70 100 1012.8
20260502011827 61 9 3.0 12.0 0.00 1.70 1.70 100 1012.5
20260502010345 61 22 7.0 14.0 0.00 1.70 1.70 100 1012.0
20260502004829 61 22 9.0 15.0 0.00 1.70 1.70 100 1011.9
20260502003403 61 41 6.0 16.0 0.00 1.70 1.70 100 1011.9
20260502001847 61 9 9.0 16.0 0.00 1.70 1.70 100 1011.8
20260502000333 61 25 8.0 15.0 0.02 1.70 1.70 100 1011.9
20260501234841 62 45 10.0 15.0 0.03 1.70 1.70 100 1011.7
20260501233331 62 13 9.0 19.0 0.03 1.70 1.70 100 1012.2
20260501231844 62 23 9.0 21.0 0.09 1.70 1.70 100 1011.3
20260501230354 62 18 9.0 19.0 0.28 1.68 1.68 100 1011.0
20260501224829 62 30 6.0 15.0 0.30 1.67 1.67 100 1011.3
20260501223352 63 347 9.0 17.0 0.30 1.67 1.67 100 1010.5
20260501221837 63 32 10.0 20.0 0.23 1.60 1.60 100 1010.0
20260501220346 64 16 10.0 18.0 0.02 1.39 1.39 99 1009.9
20260501214837 64 68 3.0 9.0 0.01 1.37 1.37 99 1008.0
20260501213330 65 53 7.0 11.0 0.01 1.37 1.37 98 1008.4
20260501211907 65 28 8.0 17.0 0.01 1.37 1.37 98 1008.5
20260501210337 66 37 8.0 15.0 0.01 1.37 1.37 98 1008.6
20260501204827 67 27 9.0 13.0 0.00 1.36 1.36 99 1008.4
20260501203338 66 26 6.0 12.0 0.00 1.36 1.36 100 1008.5
20260501201831 66 42 7.0 16.0 0.00 1.36 1.36 100 1008.5
20260501200346 66 30 7.0 14.0 0.12 1.36 1.36 100 1008.8
20260501194852 65 15 6.0 15.0 0.53 1.36 1.36 100 1009.2
20260501193342 65 9 5.0 11.0 1.11 1.36 1.36 100 1009.5
20260501191852 64 19 5.0 9.0 1.11 1.36 1.36 100 1009.7
20260501190329 64 316 4.0 9.0 0.99 1.24 1.24 100 1010.5
20260501183358 64 44 5.0 22.0 0.00 0.25 0.25 100 1006.5
20260501181828 64 114 1.0 9.0 0.00 0.25 0.25 100 1006.8